Regional Weather Roundup
Issued by NWS

Home | Current Version | Previous Version | Graphics & Text | Print | Product List | Glossary On
Versions: 1 2 3 4 5 6 7 8 9 10 11 12 13 14 15 16 17 18 19 20 21 22 23 24 25 26 27 28 29 30 31 32 33 34 35 36 37 38 39 40 41 42 43 44 45 46 47 48 49 50
000
ASUS43 KLOT 200704
RWRIL

ILLINOIS REGIONAL WEATHER ROUNDUP
NATIONAL WEATHER SERVICE CHICAGO/ROMEOVILLE IL
200 AM CDT THU JUL 20 2017

NOTE: "FAIR" INDICATES FEW OR NO CLOUDS BELOW 12,000 FEET WITH NO
SIGNIFICANT WEATHER AND/OR OBSTRUCTIONS TO VISIBILITY.

* THESE STATIONS ARE NOT UNDER NWS QUALITY CONTROL. THEY ALSO MAY NOT
  REPORT WEATHER SUCH AS PRECIPITATION OR FOG.

ILZ001-002-007-009-015-016-024-200800-
NORTHWEST ILLINOIS

CITY           SKY/WX    TMP DP  RH WIND       PRES   REMARKS
MOLINE         MOCLDY    76  68  76 VRB3      29.99F
STERLING*      MOCLDY    70  67  90 VRB3      30.01F
SAVANNA*       CLOUDY    70  67  92 S5        29.99F
$$

ILZ003-004-008-010-011-017-018-200800-
NORTH CENTRAL ILLINOIS

CITY           SKY/WX    TMP DP  RH WIND       PRES   REMARKS
ROCKFORD       CLOUDY    73  68  84 NE3       30.00F
FREEPORT*      CLOUDY    67  66  97 S5        30.00F
ROCHELLE*      CLOUDY    69  68  97 CALM      30.02F
DE KALB*       CLOUDY    71  68  91 S6        30.02F
PERU*          MOCLDY    68  65  90 S6        30.03F
$$

ILZ005-006-012>014-019>023-200800-
NORTHEAST ILLINOIS

CITY           SKY/WX    TMP DP  RH WIND       PRES   REMARKS
CHICAGO-OHARE  CLOUDY    70  67  90 SW5       30.00R
CHICAGO-MIDWAY CLOUDY    72  68  87 S8        30.00R
AURORA         CLOUDY    70  69  97 CALM      30.03R
LANSING*       CLOUDY    69  66  89 CALM      30.02R
JOLIET*        CLOUDY    70  69  96 SW5       30.02S
WAUKEGAN       CLOUDY    68  68 100 SW7       29.98R
DUPAGE AIRPORT CLOUDY    69  69 100 SW6       30.01R
WHEELING       CLOUDY    70  69  97 W6        30.02R
MORRIS*        CLOUDY    69  67  93 S3        30.02R
ROMEOVILLE*    CLOUDY    69  66  89 SW8       30.02R
NORTHERLY ISL    N/A     71  66  84 S7          N/A
$$

LMZ740>746-200800-
SOUTHERN LAKE MICHIGAN

STATION/POSITION SKY/WX   TEMP    WIND        PRES    VSBY  WAVE
                          AIR SEA DIR/SP/G                  HT/PER
                          (F)     (DEG/KT/KT) (MB)    (MI)  (FT/S)
SOUTHERN BUOY              71 70  190/ 21/ 25 1009.1          3/ 4
WILMETTE HARBOR            71 72  220/ 12/ 14   N/A           1/ 2
HARRISON CRIB              72     200/ 15/ 16   N/A
BURNHAM HARBOR             71                   N/A
CALUMET HARBOR             71     170/  5/  7 1015.6R
BURNS HARBOR               71     190/  9/ 12 1016.3F
MICHIGAN CITY              70     170/ 11/ 12   N/A
MICHIGAN CITY 6N           71 74  190/ 14/ 16   N/A           1/ 3
ST. JOSEPH                 73 74  210/ 10/ 14 1014.9F         2/ 3
$$

ILZ025>027-034>036-040-047-049-050-058-095>099-200800-
WEST-CENTRAL ILLINOIS

CITY           SKY/WX    TMP DP  RH WIND       PRES   REMARKS
QUINCY         CLOUDY    78  71  79 S5        30.03F HX  80
GALESBURG*     CLOUDY    74  69  82 SE6       30.03F
MACOMB*        CLOUDY    75  73  93 S5        30.05F
JACKSONVILLE*  CLEAR     77  71  81 S3        30.04F
PITTSFIELD*    PTCLDY    76  71  84 CALM      30.05F
$$

ILZ028>032-037-038-041>044-048-051>054-059>061-200800-
CENTRAL ILLINOIS

CITY           SKY/WX    TMP DP  RH WIND       PRES   REMARKS
PONTIAC        CLOUDY    70  69  98 S5        30.06F
BLOOMINGTON    CLOUDY    69  66  90 E6        30.09R
DECATUR        PTCLDY    75  73  93 NE6       30.06F
PEORIA         CLOUDY    74  69  85 E7        30.04F
LACON*         CLOUDY    71  67  88 SE5       30.03F
SPRINGFIELD    CLEAR     76  74  93 CALM      30.04F
TAYLORVILLE    CLEAR     76  73  91 CALM      30.04F
$$

ILZ033-039-045-046-055>057-062-063-200800-
EAST-CENTRAL ILLINOIS

CITY           SKY/WX    TMP DP  RH WIND       PRES   REMARKS
CHAMPAIGN      CLEAR     71  67  87 E5        30.07F
RANTOUL*       CLEAR     72  69  90 CALM      30.09F
MATTOON        CLEAR     78  76  93 S6        30.06F HX  81
PARIS*         MOCLDY    75  72  89 NE7       30.10R
$$

ILZ079-100>102-200800-
SOUTHWEST ILLINOIS

CITY           SKY/WX    TMP DP  RH WIND       PRES   REMARKS
ALTON          PTCLDY    77  75  92 S5        30.05F
BELLEVILLE     PTCLDY    78  74  88 SW5       30.07F HX  81
CAHOKIA*       CLEAR     78  72  81 CALM      30.05F HX  80
SPARTA*        PTCLDY    80  73  78 CALM      30.09S HX  84
$$

ILZ064>066-069>071-074>076-080>082-084>086-088>090-092>094-200800-
SOUTH-CENTRAL ILLINOIS

CITY           SKY/WX    TMP DP  RH WIND       PRES   REMARKS
CARBONDALE     PTCLDY    76  75  97 CALM      30.08F
CAIRO*         CLEAR     74  73  96 CALM      30.10S
EFFINGHAM*     CLEAR     77  77 100 SE6       30.07F
MARION         CLEAR     77  77 100 S3        30.09F
MT. VERNON     PTCLDY    74  74 100 CALM      30.08F FOG
CENTRALIA*     PTCLDY    76  75  96 CALM      30.07F
SALEM*         CLEAR     76  73  91 CALM      30.08F
METROPOLIS*    CLEAR     74  74  98 CALM      30.10F FOG
$$

ILZ067-068-072-073-078-083-087-091-200800-
SOUTHEAST ILLINOIS

CITY           SKY/WX    TMP DP  RH WIND       PRES   REMARKS
LAWRENCEVILLE  CLEAR     74  73  97 S3        30.08F
FLORA*         CLEAR     76  75  96 CALM      30.08F FOG
FAIRFIELD*     PTCLDY    75  75  99 CALM      30.07F FOG
HARRISBURG*    CLEAR     74  74  98 CALM      30.09F
ROBINSON*      CLEAR     70  70  99 CALM      30.08F FOG
CARMI*         CLEAR     74  74  99 CALM      30.08S FOG
$$

ABBREVIATIONS USED IN REMARKS
   TC - TEMPERATURE IN CELSIUS
  WCI - WIND CHILL INDEX
   HX - HEAT INDEX
  VSB - VISIBILITY
$$





USA.gov is the U.S. government's official web portal to all federal, state and local government web resources and services.